www.pogodaiklimat.ru

Погода и климат >> Архив погоды >> Южная Африка >> Clanwilliam


ПОГОДА в Clanwilliam

  • Прогноз погоды в Clanwilliam
  • Монитор погоды в Clanwilliam
  • Климат города

АРХИВ ПОГОДЫ в Clanwilliam

Время (UTC), дата Ветер
(напр.,м/с)
 
Видим.   Явления Облачность Т
(С)
Тd
(С)
f
(%)
Тe
(С)
Тes
(С)
Комфортность P
(гПа)
Po
(гПа)
Тmin
(С)
Tmax
(С)
R
(мм)
R24
(мм)
S
(см)
12 11.12 З 6 н/о н/о +32.3 +6.1 19 +30 +30 жарко 1008.0 996.9 +16.5 +33.2
15 11.12 З 6 н/о н/о +31.0 +1.7 15 +28 +28 жарко 1007.8 996.6 +30.8 +33.2
18 11.12 СЗ 3 н/о н/о +25.3 +7.2 31 +25 +25 комфорт 1009.3 997.9 +25.3 +33.2
21 11.12 СЗ 2 н/о н/о +20.6 +9.3 48 +23 +23 комфорт 1011.3 999.7 +20.6 +33.2
00 12.12 С 3 н/о н/о +15.6 +11.0 74 +15 +15 1011.8 1000.0 +15.6 +33.2
03 12.12 С 2 н/о н/о +14.1 +11.2 83 +14 +14 1012.2 1000.3 +14.1 +33.2
06 12.12 С 2 н/о н/о +17.8 +11.4 66 +18 +18 1014.7 1002.9 +13.8
09 12.12 С 2 н/о н/о +25.4 +8.2 34 +26 +26 жарко 1012.9 1001.4 +13.8 +25.4
12 12.12 ЮВ 2 н/о н/о +30.2 +3.6 18 +28 +28 жарко 1010.8 999.5 +13.8 +30.2
15 12.12 ЮЗ 6 н/о н/о +29.6 +5.3 21 +28 +28 жарко 1009.3 998.0 +29.6 +31.3
18 12.12 Ю 4 н/о н/о +23.8 +6.3 32 +24 +24 комфорт 1011.5 1000.0 +23.8 +31.3
21 12.12 Ю 3 н/о н/о +20.1 +8.8 48 +22 +22 комфорт 1013.2 1001.5 +20.1 +31.3
00 13.12 ЮВ 3 н/о н/о +17.2 +9.2 59 +17 +17 1013.5 1001.7 +17.2 +31.3
03 13.12 ЮВ 2 н/о н/о +15.9 +8.9 63 +16 +16 1013.9 1002.0 +15.8 +31.3
06 13.12 ЮВ 4 н/о н/о +19.3 +8.4 49 +20 +20 1015.2 1003.5 +15.4
09 13.12 ЮЗ 3 н/о н/о +23.6 +7.0 34 +24 +24 комфорт 1014.9 1003.3 +15.4 +23.8
12 13.12 ЮЗ 5 н/о н/о +23.0 +8.8 40 +24 +24 комфорт 1014.7 1003.1 +15.4 +24.5
15 13.12 ЮЗ 6 н/о н/о +22.8 +9.7 43 +24 +24 комфорт 1014.8 1003.2 +21.7 +24.5
18 13.12 ЮЗ 5 н/о н/о +19.4 +11.2 59 +20 +20 1016.6 1004.9 +19.4 +24.5
21 13.12 Ю 3 н/о н/о +18.9 +12.2 65 +20 +20 1017.8 1006.0 +18.6 +24.5
00 14.12 ЮВ 1 н/о н/о +17.1 +11.8 71 +18 +18 1017.4 1005.6 +17.0 +24.5
03 14.12 штиль 0 н/о н/о +15.6 +11.6 77 +15 +15 1017.8 1005.9 +15.3 +24.5
06 14.12 Ю 3 н/о н/о +19.7 +12.0 61 +21 +21 комфорт 1018.3 1006.5 +14.9
09 14.12 Ю 1 н/о н/о +26.2 +8.9 34 +27 +27 жарко 1017.1 1005.6 +14.9 +26.2
12 14.12 Ю 2 н/о н/о +30.1 +7.6 24 +29 +29 жарко 1014.3 1003.0 +14.9 +30.4
15 14.12 З 5 н/о н/о +30.6 +7.4 23 +29 +29 жарко 1012.6 1001.3 +30.0 +31.0
18 14.12 Ю 3 н/о н/о +28.1 +7.6 27 +27 +27 жарко 1013.3 1001.9 +28.1 +31.0
21 14.12 В 2 н/о н/о +23.4 +8.0 37 +24 +24 комфорт 1015.2 1003.6 +23.4 +31.0
00 15.12 СЗ 1 н/о н/о +20.8 +8.5 45 +23 +23 комфорт 1014.3 1002.6 +20.8 +31.0
03 15.12 С 1 н/о н/о +16.6 +7.6 55 +18 +18 1014.1 1002.3 +16.6 +31.0
06 15.12 штиль 0 н/о н/о +21.6 +8.3 42 +23 +23 комфорт 1014.5 1002.9 +16.1
09 15.12 ЮВ 2 н/о н/о +32.6 +5.6 18 +30 +30 жарко 1012.0 1000.8 +16.1 +32.6
12 15.12 З 1 н/о н/о +38.6 +3.4 11 +35 +35 очень
жарко
1008.7 997.8 +16.1 +38.6
15 15.12 З 6 н/о н/о +37.1 +4.6 13 +34 +34 очень
жарко
1007.4 996.4 +37.1 +39.5
18 15.12 Ю 2 н/о н/о +32.2 +4.4 17 +30 +30 жарко 1008.6 997.4 +32.2 +39.5
21 15.12 СЗ 1 н/о н/о +25.9 +4.6 25 +25 +25 комфорт 1009.6 998.2 +25.9 +39.5
00 16.12 С 2 н/о н/о +20.2 +8.6 47 +22 +22 комфорт 1009.3 997.7 +20.2 +39.5
03 16.12 С 3 н/о н/о +16.7 +11.4 71 +17 +17 1010.8 999.0 +16.7 +39.5
06 16.12 С 2 н/о н/о +17.5 +12.0 70 +18 +18 1012.7 1000.9 +16.5
09 16.12 С 2 н/о н/о +25.5 +11.5 42 +27 +27 жарко 1011.7 1000.3 +16.5 +25.5
12 16.12 С 2 н/о н/о +31.6 +10.6 27 +31 +31 жарко 1009.4 998.2 +16.5 +31.6
15 16.12 ЮЗ 4 н/о н/о +33.4 +9.2 23 +32 +32 жарко 1007.4 996.3 +32.2 +35.1
18 16.12 ЮЗ 1 н/о н/о +30.3 +9.5 27 +30 +30 жарко 1008.6 997.4 +30.3 +35.1
21 16.12 СЗ 2 н/о н/о +23.6 +11.8 47 +25 +25 комфорт 1010.6 999.1 +23.6 +35.1
00 17.12 С 3 н/о н/о +18.6 +11.9 65 +19 +19 1010.9 999.2 +18.6 +35.1
03 17.12 СЗ 3 н/о н/о +15.6 +12.3 81 +15 +15 1011.9 1000.1 +15.6 +35.1
06 17.12 СЗ 2 н/о н/о +19.1 +12.9 67 +21 +21 комфорт 1012.9 1001.2 +15.4
09 17.12 С 2 н/о н/о +26.5 +12.4 42 +28 +28 жарко 1011.6 1000.2 +15.4 +26.5
12 17.12 З 6 н/о н/о +30.9 +12.6 33 +32 +32 жарко 1009.5 998.3 +15.4 +31.8
15 17.12 З 6 н/о н/о +29.6 +11.4 32 +30 +30 жарко 1008.7 997.4 +29.6 +31.8
18 17.12 З 4 н/о н/о +26.1 +11.6 40 +27 +27 жарко 1010.1 998.7 +26.1 +31.8
21 17.12 СЗ 3 н/о н/о +18.4 +12.0 66 +19 +19 1013.7 1001.9 +18.4 +31.8
00 18.12 СЗ 2 н/о н/о +15.6 +12.2 80 +15 +15 1014.3 1002.4 +15.5 +31.8
03 18.12 С 1 н/о н/о +15.3 +12.0 81 +16 +16 1015.4 1003.5 +15.3 +31.8
06 18.12 С 1 н/о н/о +17.7 +12.4 71 +19 +19 1016.7 1004.9 +15.0
09 18.12 СЗ 1 н/о н/о +25.0 +12.7 46 +27 +27 жарко 1015.8 1004.3 +15.0 +25.2

 

Местоположение метеостанции Clanwilliam (Южная Африка): широта -32.18 долгота 18.89 высота над уровнем моря 100 м.

В архиве по умолчанию представлена погода в Clanwilliam за последнюю неделю. Архивные данные за месяц целиком и за предыдущие месяцы, начиная с января 2011 года, Вы можете получить, выбрав интересующий диапазон дат из раскрывающегося списка и нажав кнопку "Ввод!".

Внимание! Время в таблицах - всемирное. Для получения местного времени необходимо прибавить поправку, которая в Clanwilliam равна 2 ч.

Смотрите также архив погоды в соседних городах и на ближайших метеорологических станциях:

Погода в Lamberts Bay (Южная Африка) (55 км)
Погода в Vredendal (Южная Африка) (69 км)
Погода в Nieuwoudtville (Южная Африка) (95 км)
Погода в Excelsior Ceres (Южная Африка) (100 км)
Погода в Langebaanweg (Южная Африка) (110 км)
Погода в Calvinia (Южная Африка) (115 км)
Погода в Cape Columbine (Южная Африка) (121 км)
Погода в Langebaan (Южная Африка) (129 км)
Погода в Geelbek (Южная Африка) (134 км)
Погода в Malmesbury (Южная Африка) (143 км)

Пояснения к столбцам:

Ветер - указаны скорость ветра в м/с - средняя за 10 мин, порывы в срок и между сроками (в фигурных скобках) и направление, откуда дует ветер: С - северный, СВ - северо-восточный, В - восточный, ЮВ - юго-восточный, Ю - южный, ЮЗ - юго-западный, З - западный, СЗ - северо-западный.
Видимость - горизонтальная дальность видимости в метрах или километрах. При видимости от 1 до 10 км при отсутствии осадков обычно наблюдается дымка, при ухудшении видимости до 1 км и менее - туман. В сухую погоду видимость может ухудшаться дымом, пылью или мглою.
Явления - указаны атмосферные явления, наблюдавшиеся в срок или в последний час перед сроком; фигурными скобками обозначены явления, наблюдавшиеся между сроками (за 1-3 часа до срока); квадратными скобками обозначены град или гололедные отложения с указанием их диаметра в мм.
Облачность - указаны через наклонную черту общая и нижняя облачность в баллах и высота нижней границы облаков в метрах; квадратными скобками обозначены формы облаков: Ci - перистые, Cs - перисто-слоистые, Cc - перисто-кучевые, Ac - высококучевые, As - высокослоистые, Sc - слоисто-кучевые, Ns - слоисто-дождевые, Cu - кучевые, Cb - кучево-дождевые. Подробнее классификацию облаков см. в Атласе облаков (PDF).
T - Температура воздуха - температура, измеренная на высоте 2 м над землей.
Td - Температура точки росы - температура, при понижении до которой содержащийся в воздухе водяной пар достигнет насыщения.
f - Относительная влажность воздуха - влажноcть воздуха, измеренная на высоте 2 м над землей.
Te - Эффективная температура - температура, которую ощущает одетый по сезону человек в тени. Характеристика душности погоды. При расчете учитывается влияние влажности воздуха и скорости ветра на теплоощущения человека.
Tes - Эффективная температура на солнце - температура, которую ощущает человек, с поправкой на солнечный нагрев. Характеристика знойности погоды. Зависит от высоты солнца над горизонтом, облачности и скорости ветра. Ночью, в пасмурную погоду, а также при ветре 12 м/с и более поправка равна нулю.
P - Атмосферное давление - приведенное к уровню моря атмосферное давление.
Po - Атмосферное давление - измеренное на уровне метеостанции атмосферное давление.
Tmin - Минимальная температура - минимум температуры воздуха на высоте 2 м над землей.
Tmax - Максимальная температура - максимум температуры воздуха на высоте 2 м над землей.
R - Количество осадков - Количество выпавших осадков за период времени, мм. При наведении курсора мыши на число - период времени, за который выпало указанное количество осадков.
R24 - Количество осадков - Количество выпавших осадков за 24 часа, мм.
S - Снежный покров - Высота снежного покрова, см. При наведении курсора мыши на число - состояние снежного покрова и степень покрытия местности в баллах.